This is the latest recevied weather packets stored in our database for station/object SP1BMW-13. If no packets are shown the sender has not sent any weather packets the latest 10 day(s).
| Time | Temp. | Humidity | Pressure | Rain* | Wind** | Luminosity | Snow |
|---|---|---|---|---|---|---|---|
| 1777540321 | 15.56° C | 41% | 1030.6 hPa | 0 mm | 2.24 m/s, 255° | 351 W/m² | - |
| 1777540261 | 15.56° C | 42% | 1030.3 hPa | 0 mm | 1.34 m/s, 291° | 351 W/m² | - |
| 1777540201 | 15.56° C | 43% | 1030.2 hPa | 0 mm | 1.34 m/s, 295° | 370 W/m² | - |
| 1777540141 | 15.56° C | 42% | 1030.5 hPa | 0 mm | 0.89 m/s, 311° | 368 W/m² | - |
| 1777540081 | 15° C | 42% | 1030.4 hPa | 0 mm | 1.79 m/s, 317° | 384 W/m² | - |
| 1777540021 | 15° C | 43% | 1030.4 hPa | 0 mm | 0.89 m/s, 63° | 375 W/m² | - |
| 1777539961 | 15° C | 42% | 1030.5 hPa | 0 mm | 1.34 m/s, 288° | 358 W/m² | - |
| 1777539901 | 15° C | 41% | 1030.4 hPa | 0 mm | 1.34 m/s, 302° | 379 W/m² | - |
| 1777539841 | 15° C | 42% | 1030.4 hPa | 0 mm | 2.68 m/s, 273° | 372 W/m² | - |
| 1777539781 | 15° C | 41% | 1030.4 hPa | 0 mm | 1.34 m/s, 305° | 356 W/m² | - |
| 1777539721 | 15° C | 42% | 1030.6 hPa | 0 mm | 1.34 m/s, 329° | 379 W/m² | - |
| 1777539661 | 15° C | 42% | 1030.5 hPa | 0 mm | 1.79 m/s, 312° | 398 W/m² | - |
| 1777539601 | 15° C | 41% | 1030.5 hPa | 0 mm | 2.24 m/s, 249° | 406 W/m² | - |
| 1777539541 | 15° C | 41% | 1030.5 hPa | 0 mm | 1.79 m/s, 304° | 417 W/m² | - |
| 1777539481 | 15° C | 43% | 1030.4 hPa | 0 mm | 0.89 m/s, 316° | 420 W/m² | - |
| 1777539421 | 14.44° C | 42% | 1030.4 hPa | 0 mm | 1.79 m/s, 308° | 388 W/m² | - |
| 1777539362 | 14.44° C | 44% | 1030.4 hPa | 0 mm | 0.89 m/s, 31° | 332 W/m² | - |
| 1777539301 | 14.44° C | 42% | 1030.5 hPa | 0 mm | 1.79 m/s, 277° | 307 W/m² | - |
| 1777539241 | 14.44° C | 42% | 1030.5 hPa | 0 mm | 0.89 m/s, 301° | 307 W/m² | - |
| 1777539181 | 14.44° C | 42% | 1030.6 hPa | 0 mm | 0.89 m/s, 271° | 314 W/m² | - |
| 1777539121 | 14.44° C | 43% | 1030.5 hPa | 0 mm | 0.89 m/s, 317° | 323 W/m² | - |
| 1777539061 | 14.44° C | 42% | 1030.7 hPa | 0 mm | 1.79 m/s, 292° | 312 W/m² | - |
| 1777539001 | 14.44° C | 42% | 1030.7 hPa | 0 mm | 1.34 m/s, 328° | 310 W/m² | - |
| 1777538941 | 14.44° C | 42% | 1030.5 hPa | 0 mm | 1.34 m/s, 320° | 310 W/m² | - |
| 1777538881 | 14.44° C | 42% | 1030.7 hPa | 0 mm | 0.89 m/s, 307° | 311 W/m² | - |
* Rain latest hour (hover to see other rain measurements)
** Current wind speed in m/s (hover to see current wind gust speed)